Time,TemperatureF,DewpointF,PressureIn,WindDirection,WindDirectionDegrees,WindSpeedMPH,WindSpeedGustMPH,Humidity,HourlyPrecipIn,Conditions,Clouds,dailyrainin,SoftwareType,DateUTC
2013-02-10 00:00:00,40.0,32.4,29.79,ESE,112,0.0,0.0,74,0.00,,---,0.00,VWS V13.01,2013-02-10 08:00:00,
2013-02-10 00:05:00,39.0,31.4,29.78,ESE,112,0.0,0.0,74,0.00,,---,0.00,VWS V13.01,2013-02-10 08:05:00,
2013-02-10 00:10:00,39.0,31.4,29.78,ESE,112,0.0,0.0,74,0.00,,---,0.00,VWS V13.01,2013-02-10 08:10:00,
2013-02-10 00:15:00,38.0,30.5,29.78,ESE,112,1.0,1.0,74,0.00,,---,0.00,VWS V13.01,2013-02-10 08:15:00,
2013-02-10 00:20:00,38.0,30.5,29.78,ESE,112,0.0,0.0,74,0.00,,---,0.00,VWS V13.01,2013-02-10 08:20:00,
2013-02-10 00:25:00,38.0,30.5,29.78,SE,135,2.0,5.0,74,0.00,,---,0.00,VWS V13.01,2013-02-10 08:25:00,
2013-02-10 00:30:00,39.0,31.4,29.78,ESE,112,6.0,6.0,74,0.00,,---,0.00,VWS V13.01,2013-02-10 08:30:00,
2013-02-10 00:35:00,39.0,31.4,29.78,ESE,112,1.0,1.0,74,0.00,,---,0.00,VWS V13.01,2013-02-10 08:35:00,
2013-02-10 00:40:00,39.0,31.4,29.78,SE,135,1.0,1.0,74,0.00,,---,0.00,VWS V13.01,2013-02-10 08:40:00,
2013-02-10 00:45:00,40.0,32.4,29.76,ESE,112,4.0,4.0,74,0.00,,---,0.00,VWS V13.01,2013-02-10 08:45:00,
2013-02-10 00:50:00,40.0,32.4,29.76,ESE,112,3.0,3.0,74,0.00,,---,0.00,VWS V13.01,2013-02-10 08:50:00,
2013-02-10 00:55:00,40.0,32.4,29.77,ESE,112,3.0,3.0,74,0.00,,---,0.00,VWS V13.01,2013-02-10 08:55:00,
2013-02-10 01:00:00,39.0,31.4,29.77,ESE,112,0.0,3.0,74,0.00,,---,0.00,VWS V13.01,2013-02-10 09:00:00,
2013-02-10 01:05:00,39.0,31.4,29.79,SE,135,1.0,1.0,74,0.00,,---,0.00,VWS V13.01,2013-02-10 09:05:00,
2013-02-10 01:10:00,39.0,31.4,29.79,SE,135,1.0,1.0,74,0.00,,---,0.00,VWS V13.01,2013-02-10 09:10:00,
2013-02-10 01:15:00,39.0,31.4,29.77,ESE,112,0.0,0.0,74,0.00,,---,0.00,VWS V13.01,2013-02-10 09:15:00,
2013-02-10 01:20:00,38.0,30.5,29.77,ESE,112,0.0,0.0,74,0.00,,---,0.00,VWS V13.01,2013-02-10 09:20:00,
2013-02-10 01:25:00,37.0,29.8,29.77,ESE,112,0.0,0.0,75,0.00,,---,0.00,VWS V13.01,2013-02-10 09:25:00,
2013-02-10 01:30:00,37.0,29.8,29.77,ESE,112,0.0,0.0,75,0.00,,---,0.00,VWS V13.01,2013-02-10 09:30:00,
2013-02-10 01:35:00,36.0,28.9,29.79,ESE,112,0.0,0.0,75,0.00,,---,0.00,VWS V13.01,2013-02-10 09:35:00,
2013-02-10 01:40:00,36.0,28.9,29.79,ESE,112,0.0,0.0,75,0.00,,---,0.00,VWS V13.01,2013-02-10 09:40:00,
2013-02-10 01:45:00,36.0,28.9,29.78,ESE,112,0.0,0.0,75,0.00,,---,0.00,VWS V13.01,2013-02-10 09:45:00,
2013-02-10 01:50:00,36.0,28.9,29.78,ESE,112,1.0,2.0,75,0.00,,---,0.00,VWS V13.01,2013-02-10 09:50:00,
2013-02-10 01:55:00,37.0,29.8,29.77,ESE,112,0.0,3.0,75,0.00,,---,0.00,VWS V13.01,2013-02-10 09:55:00,
2013-02-10 02:00:00,37.0,29.8,29.77,ESE,112,3.0,4.0,75,0.00,,---,0.00,VWS V13.01,2013-02-10 10:00:00,
2013-02-10 02:05:00,38.0,30.5,29.77,ESE,112,3.0,5.0,74,0.00,,---,0.00,VWS V13.01,2013-02-10 10:05:00,
2013-02-10 02:10:00,38.0,30.5,29.77,ESE,112,5.0,5.0,74,0.00,,---,0.00,VWS V13.01,2013-02-10 10:10:00,
2013-02-10 02:15:00,38.0,30.5,29.77,ESE,112,0.0,2.0,74,0.00,,---,0.00,VWS V13.01,2013-02-10 10:15:00,
2013-02-10 02:20:00,38.0,30.5,29.77,SE,135,2.0,3.0,74,0.00,,---,0.00,VWS V13.01,2013-02-10 10:20:00,
2013-02-10 02:25:00,38.0,30.5,29.77,ESE,112,5.0,5.0,74,0.00,,---,0.00,VWS V13.01,2013-02-10 10:25:00,
2013-02-10 02:30:00,38.0,30.5,29.77,ESE,112,5.0,6.0,74,0.00,,---,0.00,VWS V13.01,2013-02-10 10:30:00,
2013-02-10 02:35:00,38.0,30.5,29.77,ESE,112,2.0,3.0,74,0.00,,---,0.00,VWS V13.01,2013-02-10 10:35:00,
2013-02-10 02:40:00,38.0,30.5,29.77,ESE,112,4.0,5.0,74,0.00,,---,0.00,VWS V13.01,2013-02-10 10:40:00,
2013-02-10 02:45:00,38.0,30.5,29.78,ESE,112,1.0,5.0,74,0.00,,---,0.00,VWS V13.01,2013-02-10 10:45:00,
2013-02-10 02:50:00,38.0,30.5,29.78,ESE,112,3.0,5.0,74,0.00,,---,0.00,VWS V13.01,2013-02-10 10:50:00,
2013-02-10 02:55:00,38.0,30.5,29.79,ESE,112,3.0,5.0,74,0.00,,---,0.00,VWS V13.01,2013-02-10 10:55:00,
2013-02-10 03:00:00,38.0,30.5,29.79,ESE,112,5.0,5.0,74,0.00,,---,0.00,VWS V13.01,2013-02-10 11:00:00,
2013-02-10 03:05:00,38.0,30.5,29.78,ESE,112,0.0,3.0,74,0.00,,---,0.00,VWS V13.01,2013-02-10 11:05:00,
2013-02-10 03:10:00,37.0,29.8,29.78,ESE,112,0.0,0.0,75,0.00,,---,0.00,VWS V13.01,2013-02-10 11:10:00,
2013-02-10 03:15:00,37.0,29.8,29.77,SE,135,0.0,0.0,75,0.00,,---,0.00,VWS V13.01,2013-02-10 11:15:00,
2013-02-10 03:20:00,37.0,29.8,29.77,SE,135,0.0,0.0,75,0.00,,---,0.00,VWS V13.01,2013-02-10 11:20:00,
2013-02-10 03:25:00,36.0,28.9,29.78,SE,135,0.0,0.0,75,0.00,,---,0.00,VWS V13.01,2013-02-10 11:25:00,
2013-02-10 03:30:00,36.0,28.9,29.78,ESE,112,0.0,0.0,75,0.00,,---,0.00,VWS V13.01,2013-02-10 11:30:00,
2013-02-10 03:35:00,36.0,28.9,29.79,ESE,112,0.0,2.0,75,0.00,,---,0.00,VWS V13.01,2013-02-10 11:35:00,
2013-02-10 03:40:00,36.0,28.9,29.79,ESE,112,0.0,0.0,75,0.00,,---,0.00,VWS V13.01,2013-02-10 11:40:00,
2013-02-10 03:45:00,36.0,28.9,29.78,ESE,112,0.0,0.0,75,0.00,,---,0.00,VWS V13.01,2013-02-10 11:45:00,
2013-02-10 03:50:00,35.0,27.9,29.78,ESE,112,0.0,0.0,75,0.00,,---,0.00,VWS V13.01,2013-02-10 11:50:00,
2013-02-10 03:55:00,35.0,27.9,29.78,ESE,112,0.0,4.0,75,0.00,,---,0.00,VWS V13.01,2013-02-10 11:55:00,
2013-02-10 04:00:00,35.0,27.9,29.78,ESE,112,0.0,0.0,75,0.00,,---,0.00,VWS V13.01,2013-02-10 12:00:00,
2013-02-10 04:05:00,35.0,27.9,29.79,ESE,112,0.0,0.0,75,0.00,,---,0.00,VWS V13.01,2013-02-10 12:05:00,
2013-02-10 04:10:00,35.0,27.9,29.79,ESE,112,0.0,0.0,75,0.00,,---,0.00,VWS V13.01,2013-02-10 12:10:00,
2013-02-10 04:15:00,34.0,26.9,29.79,ESE,112,0.0,0.0,75,0.00,,---,0.00,VWS V13.01,2013-02-10 12:15:00,
2013-02-10 04:20:00,34.0,26.9,29.79,ESE,112,0.0,4.0,75,0.00,,---,0.00,VWS V13.01,2013-02-10 12:20:00,
2013-02-10 04:25:00,35.0,27.9,29.80,ESE,112,0.0,0.0,75,0.00,,---,0.00,VWS V13.01,2013-02-10 12:25:00,
2013-02-10 04:30:00,36.0,28.9,29.80,ESE,112,0.0,1.0,75,0.00,,---,0.00,VWS V13.01,2013-02-10 12:30:00,
2013-02-10 04:35:00,36.0,28.9,29.77,ESE,112,0.0,0.0,75,0.00,,---,0.00,VWS V13.01,2013-02-10 12:35:00,
2013-02-10 04:40:00,35.0,27.9,29.77,ESE,112,0.0,0.0,75,0.00,,---,0.00,VWS V13.01,2013-02-10 12:40:00,
2013-02-10 04:45:00,35.0,27.9,29.79,ESE,112,0.0,0.0,75,0.00,,---,0.00,VWS V13.01,2013-02-10 12:45:00,
2013-02-10 04:50:00,34.0,26.9,29.79,ESE,112,0.0,0.0,75,0.00,,---,0.00,VWS V13.01,2013-02-10 12:50:00,
2013-02-10 04:55:00,34.0,26.9,29.80,ESE,112,0.0,0.0,75,0.00,,---,0.00,VWS V13.01,2013-02-10 12:55:00,
2013-02-10 05:00:00,33.0,26.0,29.80,ESE,112,0.0,0.0,75,0.00,,---,0.00,VWS V13.01,2013-02-10 13:00:00,
2013-02-10 05:05:00,33.0,26.0,29.81,ESE,112,0.0,0.0,75,0.00,,---,0.00,VWS V13.01,2013-02-10 13:05:00,
2013-02-10 05:10:00,33.0,26.0,29.81,ESE,112,0.0,0.0,75,0.00,,---,0.00,VWS V13.01,2013-02-10 13:10:00,
2013-02-10 05:15:00,33.0,26.0,29.80,ESE,112,0.0,0.0,75,0.00,,---,0.00,VWS V13.01,2013-02-10 13:15:00,
2013-02-10 05:20:00,33.0,26.0,29.80,ESE,112,0.0,0.0,75,0.00,,---,0.00,VWS V13.01,2013-02-10 13:20:00,
2013-02-10 05:25:00,33.0,26.0,29.81,ESE,112,0.0,0.0,75,0.00,,---,0.00,VWS V13.01,2013-02-10 13:25:00,
2013-02-10 05:30:00,33.0,26.0,29.81,ESE,112,0.0,0.0,75,0.00,,---,0.00,VWS V13.01,2013-02-10 13:30:00,
2013-02-10 05:35:00,33.0,26.0,29.80,ESE,112,0.0,0.0,75,0.00,,---,0.00,VWS V13.01,2013-02-10 13:35:00,
2013-02-10 05:40:00,34.0,26.9,29.80,ESE,112,0.0,5.0,75,0.00,,---,0.00,VWS V13.01,2013-02-10 13:40:00,
2013-02-10 05:45:00,34.0,26.9,29.81,ESE,112,0.0,0.0,75,0.00,,---,0.00,VWS V13.01,2013-02-10 13:45:00,
2013-02-10 05:50:00,35.0,27.9,29.81,SE,135,0.0,1.0,75,0.00,,---,0.00,VWS V13.01,2013-02-10 13:50:00,
2013-02-10 05:55:00,35.0,27.9,29.79,ESE,112,0.0,2.0,75,0.00,,---,0.00,VWS V13.01,2013-02-10 13:55:00,
2013-02-10 06:00:00,35.0,27.9,29.79,ESE,112,0.0,0.0,75,0.00,,---,0.00,VWS V13.01,2013-02-10 14:00:00,
2013-02-10 06:05:00,35.0,27.9,29.80,ESE,112,0.0,0.0,75,0.00,,---,0.00,VWS V13.01,2013-02-10 14:05:00,
2013-02-10 06:10:00,35.0,27.9,29.80,ESE,112,0.0,0.0,75,0.00,,---,0.00,VWS V13.01,2013-02-10 14:10:00,
2013-02-10 06:15:00,34.0,26.9,29.80,ESE,112,0.0,0.0,75,0.00,,---,0.00,VWS V13.01,2013-02-10 14:15:00,
2013-02-10 06:20:00,34.0,26.9,29.80,SE,135,0.0,1.0,75,0.00,,---,0.00,VWS V13.01,2013-02-10 14:20:00,
2013-02-10 06:25:00,34.0,26.9,29.80,SE,135,0.0,0.0,75,0.00,,---,0.00,VWS V13.01,2013-02-10 14:25:00,
2013-02-10 06:30:00,34.0,26.9,29.80,SE,135,0.0,0.0,75,0.00,,---,0.00,VWS V13.01,2013-02-10 14:30:00,
2013-02-10 06:35:00,34.0,26.9,29.80,SE,135,0.0,0.0,75,0.00,,---,0.00,VWS V13.01,2013-02-10 14:35:00,
2013-02-10 06:40:00,34.0,26.9,29.80,SE,135,0.0,0.0,75,0.00,,---,0.00,VWS V13.01,2013-02-10 14:40:00,
2013-02-10 06:45:00,34.0,26.9,29.82,SE,135,0.0,0.0,75,0.00,,---,0.00,VWS V13.01,2013-02-10 14:45:00,
2013-02-10 06:50:00,34.0,26.9,29.82,SE,135,0.0,0.0,75,0.00,,---,0.00,VWS V13.01,2013-02-10 14:50:00,
2013-02-10 06:55:00,34.0,26.9,29.82,SE,135,0.0,0.0,75,0.00,,---,0.00,VWS V13.01,2013-02-10 14:55:00,
2013-02-10 07:00:00,33.0,26.0,29.82,SE,135,0.0,0.0,75,0.00,,---,0.00,VWS V13.01,2013-02-10 15:00:00,
2013-02-10 07:05:00,33.0,26.0,29.82,SE,135,0.0,0.0,75,0.00,,---,0.00,VWS V13.01,2013-02-10 15:05:00,
2013-02-10 07:10:00,33.0,26.0,29.82,SE,135,0.0,0.0,75,0.00,,---,0.00,VWS V13.01,2013-02-10 15:10:00,
2013-02-10 07:15:00,33.0,26.0,29.81,SE,135,0.0,0.0,75,0.00,,---,0.00,VWS V13.01,2013-02-10 15:15:00,
2013-02-10 07:20:00,33.0,26.0,29.81,SE,135,1.0,2.0,75,0.00,,---,0.00,VWS V13.01,2013-02-10 15:20:00,
2013-02-10 07:25:00,34.0,26.9,29.81,SE,135,0.0,0.0,75,0.00,,---,0.00,VWS V13.01,2013-02-10 15:25:00,
2013-02-10 07:30:00,34.0,26.9,29.81,SE,135,0.0,1.0,75,0.00,,---,0.00,VWS V13.01,2013-02-10 15:30:00,
2013-02-10 07:34:00,34.0,26.9,29.82,SE,135,0.0,0.0,75,0.00,,---,0.00,VWS V13.01,2013-02-10 15:34:00,
2013-02-10 07:39:00,34.0,26.9,29.82,SE,135,0.0,0.0,75,0.00,,---,0.00,VWS V13.01,2013-02-10 15:39:00,
2013-02-10 07:44:00,34.0,26.9,29.82,SE,135,0.0,0.0,75,0.00,,---,0.00,VWS V13.01,2013-02-10 15:44:00,
2013-02-10 07:49:00,35.0,27.9,29.82,SE,135,0.0,0.0,75,0.00,,---,0.00,VWS V13.01,2013-02-10 15:49:00,
2013-02-10 07:54:00,35.0,27.9,29.83,SE,135,0.0,0.0,75,0.00,,---,0.00,VWS V13.01,2013-02-10 15:54:00,
2013-02-10 07:59:00,36.0,28.9,29.83,SE,135,0.0,0.0,75,0.00,,---,0.00,VWS V13.01,2013-02-10 15:59:00,
2013-02-10 08:04:00,37.0,29.8,29.81,SE,135,0.0,0.0,75,0.00,,---,0.00,VWS V13.01,2013-02-10 16:04:00,
2013-02-10 08:09:00,38.0,30.5,29.81,SE,135,0.0,0.0,74,0.00,,---,0.00,VWS V13.01,2013-02-10 16:09:00,
2013-02-10 08:14:00,39.0,31.4,29.82,SE,135,0.0,0.0,74,0.00,,---,0.00,VWS V13.01,2013-02-10 16:14:00,
2013-02-10 08:19:00,39.0,31.4,29.82,SE,135,0.0,0.0,74,0.00,,---,0.00,VWS V13.01,2013-02-10 16:19:00,
2013-02-10 08:24:00,40.0,32.4,29.81,SE,135,0.0,0.0,74,0.00,,---,0.00,VWS V13.01,2013-02-10 16:24:00,
2013-02-10 08:29:00,41.0,33.4,29.81,SE,135,0.0,0.0,74,0.00,,---,0.00,VWS V13.01,2013-02-10 16:29:00,
2013-02-10 08:34:00,42.0,34.3,29.81,SE,135,0.0,0.0,74,0.00,,---,0.00,VWS V13.01,2013-02-10 16:34:00,
2013-02-10 08:39:00,43.0,35.6,29.81,SE,135,0.0,0.0,75,0.00,,---,0.00,VWS V13.01,2013-02-10 16:39:00,
2013-02-10 08:44:00,44.0,36.6,29.81,SE,135,0.0,0.0,75,0.00,,---,0.00,VWS V13.01,2013-02-10 16:44:00,
2013-02-10 08:49:00,45.0,37.6,29.81,SE,135,0.0,0.0,75,0.00,,---,0.00,VWS V13.01,2013-02-10 16:49:00,
2013-02-10 08:54:00,46.0,38.5,29.81,SE,135,0.0,0.0,75,0.00,,---,0.00,VWS V13.01,2013-02-10 16:54:00,
2013-02-10 08:59:00,47.0,39.5,29.81,SE,135,0.0,0.0,75,0.00,,---,0.00,VWS V13.01,2013-02-10 16:59:00,
2013-02-10 09:04:00,47.0,39.5,29.79,SE,135,0.0,0.0,75,0.00,,---,0.00,VWS V13.01,2013-02-10 17:04:00,
2013-02-10 09:09:00,48.0,40.8,29.79,SE,135,0.0,0.0,76,0.00,,---,0.00,VWS V13.01,2013-02-10 17:09:00,
2013-02-10 09:14:00,48.0,40.8,29.80,SE,135,0.0,0.0,76,0.00,,---,0.00,VWS V13.01,2013-02-10 17:14:00,
2013-02-10 09:19:00,49.0,41.8,29.80,SE,135,0.0,0.0,76,0.00,,---,0.00,VWS V13.01,2013-02-10 17:19:00,
2013-02-10 09:24:00,50.0,42.7,29.79,SE,135,0.0,0.0,76,0.00,,---,0.00,VWS V13.01,2013-02-10 17:24:00,
2013-02-10 09:29:00,51.0,43.7,29.79,SE,135,0.0,0.0,76,0.00,,---,0.00,VWS V13.01,2013-02-10 17:29:00,
2013-02-10 09:34:00,51.0,43.7,29.78,SE,135,0.0,0.0,76,0.00,,---,0.00,VWS V13.01,2013-02-10 17:34:00,
2013-02-10 09:39:00,52.0,45.0,29.78,West,270,2.0,3.0,77,0.00,,---,0.00,VWS V13.01,2013-02-10 17:39:00,
2013-02-10 09:44:00,52.0,45.0,29.79,West,270,0.0,0.0,77,0.00,,---,0.00,VWS V13.01,2013-02-10 17:44:00,
2013-02-10 09:50:00,52.0,45.0,29.79,West,270,0.0,0.0,77,0.00,,---,0.00,VWS V13.01,2013-02-10 17:50:00,
2013-02-10 09:54:00,52.0,45.0,29.77,NW,315,1.0,4.0,77,0.00,,---,0.00,VWS V13.01,2013-02-10 17:54:00,
2013-02-10 09:59:00,52.0,45.0,29.77,NW,315,0.0,0.0,77,0.00,,---,0.00,VWS V13.01,2013-02-10 17:59:00,
2013-02-10 10:05:00,52.0,45.0,29.78,WNW,292,0.0,0.0,77,0.00,,---,0.00,VWS V13.01,2013-02-10 18:05:00,
2013-02-10 10:10:00,51.0,44.0,29.78,WNW,292,1.0,1.0,77,0.00,,---,0.00,VWS V13.01,2013-02-10 18:10:00,
2013-02-10 10:15:00,50.0,43.1,29.77,WNW,292,0.0,1.0,77,0.00,,---,0.00,VWS V13.01,2013-02-10 18:15:00,
2013-02-10 10:19:00,51.0,44.0,29.77,WNW,292,0.0,0.0,77,0.00,,---,0.00,VWS V13.01,2013-02-10 18:19:00,
2013-02-10 10:24:00,52.0,45.0,29.76,NW,315,0.0,0.0,77,0.00,,---,0.00,VWS V13.01,2013-02-10 18:24:00,
2013-02-10 10:29:00,52.0,45.0,29.76,NW,315,0.0,4.0,77,0.00,,---,0.00,VWS V13.01,2013-02-10 18:29:00,
2013-02-10 10:34:00,51.0,44.0,29.76,WSW,247,0.0,2.0,77,0.00,,---,0.00,VWS V13.01,2013-02-10 18:34:00,
2013-02-10 10:39:00,52.0,45.0,29.76,NW,315,0.0,0.0,77,0.00,,---,0.00,VWS V13.01,2013-02-10 18:39:00,
2013-02-10 10:45:00,52.0,45.0,29.76,North,360,0.0,0.0,77,0.00,,---,0.00,VWS V13.01,2013-02-10 18:45:00,
2013-02-10 10:49:00,53.0,46.0,29.76,North,360,0.0,0.0,77,0.00,,---,0.00,VWS V13.01,2013-02-10 18:49:00,
2013-02-10 10:54:00,53.0,46.0,29.76,WNW,292,0.0,0.0,77,0.00,,---,0.00,VWS V13.01,2013-02-10 18:54:00,
2013-02-10 10:59:00,54.0,47.3,29.76,North,360,0.0,1.0,78,0.00,,---,0.00,VWS V13.01,2013-02-10 18:59:00,
2013-02-10 11:05:00,54.0,47.3,29.75,North,360,0.0,0.0,78,0.00,,---,0.00,VWS V13.01,2013-02-10 19:05:00,
2013-02-10 11:10:00,54.0,47.3,29.75,West,270,0.0,5.0,78,0.00,,---,0.00,VWS V13.01,2013-02-10 19:10:00,
2013-02-10 11:15:00,54.0,47.3,29.75,West,270,0.0,0.0,78,0.00,,---,0.00,VWS V13.01,2013-02-10 19:15:00,
2013-02-10 11:20:00,54.0,47.3,29.75,North,360,0.0,0.0,78,0.00,,---,0.00,VWS V13.01,2013-02-10 19:20:00,
2013-02-10 11:25:00,54.0,47.3,29.75,NNE,22,0.0,0.0,78,0.00,,---,0.00,VWS V13.01,2013-02-10 19:25:00,
2013-02-10 11:30:00,54.0,47.3,29.75,North,360,2.0,2.0,78,0.00,,---,0.00,VWS V13.01,2013-02-10 19:30:00,
2013-02-10 11:35:00,54.0,47.3,29.74,West,270,1.0,3.0,78,0.00,,---,0.00,VWS V13.01,2013-02-10 19:35:00,
2013-02-10 11:40:00,54.0,47.3,29.74,West,270,0.0,0.0,78,0.00,,---,0.00,VWS V13.01,2013-02-10 19:40:00,
2013-02-10 11:45:00,52.0,45.0,29.73,NW,315,0.0,1.0,77,0.00,,---,0.00,VWS V13.01,2013-02-10 19:45:00,
2013-02-10 11:50:00,51.0,44.0,29.73,West,270,6.0,6.0,77,0.00,,---,0.00,VWS V13.01,2013-02-10 19:50:00,
2013-02-10 11:55:00,52.0,45.0,29.75,WNW,292,2.0,6.0,77,0.00,,---,0.00,VWS V13.01,2013-02-10 19:55:00,
2013-02-10 12:00:00,53.0,46.0,29.75,NW,315,0.0,0.0,77,0.00,,---,0.00,VWS V13.01,2013-02-10 20:00:00,
2013-02-10 12:05:00,54.0,47.3,29.72,NW,315,0.0,0.0,78,0.00,,---,0.00,VWS V13.01,2013-02-10 20:05:00,
2013-02-10 12:10:00,55.0,48.3,29.72,WNW,292,0.0,3.0,78,0.00,,---,0.00,VWS V13.01,2013-02-10 20:10:00,
2013-02-10 12:15:00,55.0,48.3,29.71,North,360,0.0,0.0,78,0.00,,---,0.00,VWS V13.01,2013-02-10 20:15:00,
2013-02-10 12:20:00,55.0,48.3,29.71,West,270,6.0,7.0,78,0.00,,---,0.00,VWS V13.01,2013-02-10 20:20:00,
2013-02-10 12:25:00,54.0,47.3,29.72,WNW,292,3.0,6.0,78,0.00,,---,0.00,VWS V13.01,2013-02-10 20:25:00,
2013-02-10 12:30:00,54.0,47.3,29.72,NW,315,0.0,7.0,78,0.00,,---,0.00,VWS V13.01,2013-02-10 20:30:00,
2013-02-10 12:35:00,53.0,46.0,29.71,North,360,0.0,0.0,77,0.00,,---,0.00,VWS V13.01,2013-02-10 20:35:00,
2013-02-10 12:40:00,54.0,47.3,29.71,North,360,0.0,0.0,78,0.00,,---,0.00,VWS V13.01,2013-02-10 20:40:00,
2013-02-10 12:45:00,55.0,48.3,29.71,WNW,292,5.0,6.0,78,0.00,,---,0.00,VWS V13.01,2013-02-10 20:45:00,
2013-02-10 12:50:00,55.0,48.3,29.71,North,360,0.0,3.0,78,0.00,,---,0.00,VWS V13.01,2013-02-10 20:50:00,
2013-02-10 12:55:00,56.0,49.2,29.71,North,360,0.0,1.0,78,0.00,,---,0.00,VWS V13.01,2013-02-10 20:55:00,
2013-02-10 13:00:00,56.0,49.2,29.71,NW,315,0.0,6.0,78,0.00,,---,0.00,VWS V13.01,2013-02-10 21:00:00,
2013-02-10 13:05:00,55.0,48.3,29.69,North,360,0.0,0.0,78,0.00,,---,0.00,VWS V13.01,2013-02-10 21:05:00,
2013-02-10 13:10:00,56.0,49.2,29.69,NNE,22,0.0,0.0,78,0.00,,---,0.00,VWS V13.01,2013-02-10 21:10:00,
2013-02-10 13:15:00,56.0,49.2,29.70,NNE,22,0.0,0.0,78,0.00,,---,0.00,VWS V13.01,2013-02-10 21:15:00,
2013-02-10 13:20:00,57.0,50.2,29.70,North,360,0.0,0.0,78,0.00,,---,0.00,VWS V13.01,2013-02-10 21:20:00,
2013-02-10 13:25:00,58.0,51.2,29.68,NW,315,0.0,0.0,78,0.00,,---,0.00,VWS V13.01,2013-02-10 21:25:00,
2013-02-10 13:30:00,58.0,51.2,29.68,North,360,0.0,0.0,78,0.00,,---,0.00,VWS V13.01,2013-02-10 21:30:00,
2013-02-10 13:35:00,59.0,52.2,29.68,North,360,2.0,2.0,78,0.00,,---,0.00,VWS V13.01,2013-02-10 21:35:00,
2013-02-10 13:40:00,58.0,51.2,29.68,North,360,2.0,4.0,78,0.00,,---,0.00,VWS V13.01,2013-02-10 21:40:00,
2013-02-10 13:45:00,58.0,51.2,29.69,WNW,292,1.0,8.0,78,0.00,,---,0.00,VWS V13.01,2013-02-10 21:45:00,
2013-02-10 13:50:00,58.0,51.2,29.69,North,360,0.0,4.0,78,0.00,,---,0.00,VWS V13.01,2013-02-10 21:50:00,
2013-02-10 13:55:00,59.0,52.2,29.68,NNE,22,0.0,0.0,78,0.00,,---,0.00,VWS V13.01,2013-02-10 21:55:00,
2013-02-10 14:00:00,57.0,50.2,29.68,WNW,292,0.0,5.0,78,0.00,,---,0.00,VWS V13.01,2013-02-10 22:00:00,
2013-02-10 14:05:00,57.0,50.2,29.68,West,270,2.0,8.0,78,0.00,,---,0.00,VWS V13.01,2013-02-10 22:05:00,
2013-02-10 14:10:00,58.0,51.2,29.68,NNW,337,0.0,0.0,78,0.00,,---,0.00,VWS V13.01,2013-02-10 22:10:00,
2013-02-10 14:15:00,58.0,51.2,29.67,NW,315,0.0,4.0,78,0.00,,---,0.00,VWS V13.01,2013-02-10 22:15:00,
2013-02-10 14:20:00,59.0,52.2,29.67,North,360,0.0,3.0,78,0.00,,---,0.00,VWS V13.01,2013-02-10 22:20:00,
2013-02-10 14:25:00,59.0,52.2,29.67,NW,315,1.0,3.0,78,0.00,,---,0.00,VWS V13.01,2013-02-10 22:25:00,
2013-02-10 14:30:00,59.0,52.2,29.67,NNE,22,0.0,2.0,78,0.00,,---,0.00,VWS V13.01,2013-02-10 22:30:00,
2013-02-10 14:35:00,60.0,53.5,29.67,North,360,1.0,3.0,79,0.00,,---,0.00,VWS V13.01,2013-02-10 22:35:00,
2013-02-10 14:40:00,60.0,53.5,29.67,North,360,0.0,0.0,79,0.00,,---,0.00,VWS V13.01,2013-02-10 22:40:00,
2013-02-10 14:45:00,60.0,53.5,29.66,NNE,22,2.0,4.0,79,0.00,,---,0.00,VWS V13.01,2013-02-10 22:45:00,
2013-02-10 14:50:00,59.0,52.2,29.66,North,360,0.0,0.0,78,0.00,,---,0.00,VWS V13.01,2013-02-10 22:50:00,
2013-02-10 14:55:00,60.0,53.5,29.67,North,360,0.0,1.0,79,0.00,,---,0.00,VWS V13.01,2013-02-10 22:55:00,
2013-02-10 15:00:00,60.0,53.5,29.67,WNW,292,0.0,8.0,79,0.00,,---,0.00,VWS V13.01,2013-02-10 23:00:00,
2013-02-10 15:05:00,60.0,53.5,29.66,North,360,0.0,0.0,79,0.00,,---,0.00,VWS V13.01,2013-02-10 23:05:00,
2013-02-10 15:10:00,60.0,53.5,29.66,NW,315,3.0,5.0,79,0.00,,---,0.00,VWS V13.01,2013-02-10 23:10:00,
2013-02-10 15:15:00,60.0,53.5,29.66,NNW,337,0.0,5.0,79,0.00,,---,0.00,VWS V13.01,2013-02-10 23:15:00,
2013-02-10 15:20:00,60.0,53.5,29.66,North,360,3.0,3.0,79,0.00,,---,0.00,VWS V13.01,2013-02-10 23:20:00,
2013-02-10 15:25:00,60.0,53.5,29.66,NNE,22,0.0,2.0,79,0.00,,---,0.00,VWS V13.01,2013-02-10 23:25:00,
2013-02-10 15:30:00,60.0,53.5,29.66,NNE,22,0.0,0.0,79,0.00,,---,0.00,VWS V13.01,2013-02-10 23:30:00,
2013-02-10 15:35:00,60.0,53.5,29.66,NNE,22,2.0,4.0,79,0.00,,---,0.00,VWS V13.01,2013-02-10 23:35:00,
2013-02-10 15:40:00,60.0,53.5,29.66,North,360,0.0,1.0,79,0.00,,---,0.00,VWS V13.01,2013-02-10 23:40:00,
2013-02-10 15:45:00,60.0,53.5,29.65,NNE,22,0.0,0.0,79,0.00,,---,0.00,VWS V13.01,2013-02-10 23:45:00,
2013-02-10 15:50:00,60.0,53.5,29.65,North,360,0.0,3.0,79,0.00,,---,0.00,VWS V13.01,2013-02-10 23:50:00,
2013-02-10 15:55:00,60.0,53.5,29.65,North,360,0.0,2.0,79,0.00,,---,0.00,VWS V13.01,2013-02-10 23:55:00,
2013-02-10 15:59:00,59.0,52.2,29.65,NNE,22,2.0,5.0,78,0.00,,---,0.00,VWS V13.01,2013-02-10 23:59:00,
2013-02-10 16:04:00,60.0,53.5,29.65,North,360,0.0,0.0,79,0.00,,---,0.00,VWS V13.01,2013-02-11 00:04:00,
2013-02-10 16:09:00,59.0,52.2,29.65,NNE,22,0.0,0.0,78,0.00,,---,0.00,VWS V13.01,2013-02-11 00:09:00,
2013-02-10 16:14:00,58.0,51.2,29.66,North,360,0.0,0.0,78,0.00,,---,0.00,VWS V13.01,2013-02-11 00:14:00,
2013-02-10 16:19:00,58.0,51.2,29.66,NNE,22,0.0,0.0,78,0.00,,---,0.00,VWS V13.01,2013-02-11 00:19:00,
2013-02-10 16:24:00,57.0,50.2,29.65,North,360,0.0,2.0,78,0.00,,---,0.00,VWS V13.01,2013-02-11 00:24:00,
2013-02-10 16:29:00,57.0,50.2,29.65,North,360,0.0,0.0,78,0.00,,---,0.00,VWS V13.01,2013-02-11 00:29:00,
2013-02-10 16:34:00,56.0,49.2,29.64,North,360,0.0,0.0,78,0.00,,---,0.00,VWS V13.01,2013-02-11 00:34:00,
2013-02-10 16:39:00,56.0,49.2,29.64,North,360,2.0,4.0,78,0.00,,---,0.00,VWS V13.01,2013-02-11 00:39:00,
2013-02-10 16:44:00,56.0,49.2,29.65,North,360,1.0,2.0,78,0.00,,---,0.00,VWS V13.01,2013-02-11 00:44:00,
2013-02-10 16:49:00,56.0,49.2,29.65,North,360,0.0,0.0,78,0.00,,---,0.00,VWS V13.01,2013-02-11 00:49:00,
2013-02-10 16:54:00,56.0,49.2,29.64,North,360,0.0,0.0,78,0.00,,---,0.00,VWS V13.01,2013-02-11 00:54:00,
2013-02-10 16:59:00,55.0,48.3,29.64,North,360,0.0,0.0,78,0.00,,---,0.00,VWS V13.01,2013-02-11 00:59:00,
2013-02-10 17:04:00,55.0,48.3,29.65,North,360,0.0,0.0,78,0.00,,---,0.00,VWS V13.01,2013-02-11 01:04:00,
2013-02-10 17:09:00,55.0,48.3,29.65,North,360,0.0,0.0,78,0.00,,---,0.00,VWS V13.01,2013-02-11 01:09:00,
2013-02-10 17:14:00,55.0,48.3,29.65,West,270,0.0,0.0,78,0.00,,---,0.00,VWS V13.01,2013-02-11 01:14:00,
2013-02-10 17:19:00,54.0,47.3,29.65,NW,315,0.0,0.0,78,0.00,,---,0.00,VWS V13.01,2013-02-11 01:19:00,
2013-02-10 17:24:00,53.0,46.0,29.66,NW,315,0.0,0.0,77,0.00,,---,0.00,VWS V13.01,2013-02-11 01:24:00,
2013-02-10 17:29:00,53.0,46.0,29.66,NW,315,0.0,0.0,77,0.00,,---,0.00,VWS V13.01,2013-02-11 01:29:00,
2013-02-10 17:34:00,53.0,46.0,29.65,NW,315,0.0,0.0,77,0.00,,---,0.00,VWS V13.01,2013-02-11 01:34:00,
2013-02-10 17:39:00,52.0,45.0,29.65,NW,315,0.0,0.0,77,0.00,,---,0.00,VWS V13.01,2013-02-11 01:39:00,
2013-02-10 17:44:00,52.0,45.0,29.66,NW,315,0.0,0.0,77,0.00,,---,0.00,VWS V13.01,2013-02-11 01:44:00,
2013-02-10 17:49:00,52.0,45.0,29.66,NW,315,0.0,0.0,77,0.00,,---,0.00,VWS V13.01,2013-02-11 01:49:00,
2013-02-10 17:54:00,52.0,45.0,29.66,NW,315,0.0,0.0,77,0.00,,---,0.00,VWS V13.01,2013-02-11 01:54:00,
2013-02-10 17:59:00,52.0,45.0,29.66,NNE,22,0.0,0.0,77,0.00,,---,0.00,VWS V13.01,2013-02-11 01:59:00,
2013-02-10 18:04:00,53.0,46.0,29.67,North,360,0.0,2.0,77,0.00,,---,0.00,VWS V13.01,2013-02-11 02:04:00,
2013-02-10 18:09:00,53.0,46.0,29.67,North,360,0.0,3.0,77,0.00,,---,0.00,VWS V13.01,2013-02-11 02:09:00,
2013-02-10 18:14:00,53.0,46.0,29.67,North,360,0.0,1.0,77,0.00,,---,0.00,VWS V13.01,2013-02-11 02:14:00,
2013-02-10 18:19:00,53.0,46.0,29.67,North,360,0.0,0.0,77,0.00,,---,0.00,VWS V13.01,2013-02-11 02:19:00,
2013-02-10 18:24:00,53.0,46.0,29.68,North,360,0.0,0.0,77,0.00,,---,0.00,VWS V13.01,2013-02-11 02:24:00,
2013-02-10 18:29:00,53.0,46.0,29.68,North,360,0.0,0.0,77,0.00,,---,0.00,VWS V13.01,2013-02-11 02:29:00,
2013-02-10 18:34:00,53.0,46.0,29.68,NNE,22,0.0,1.0,77,0.00,,---,0.00,VWS V13.01,2013-02-11 02:34:00,
2013-02-10 18:39:00,53.0,46.0,29.68,NNE,22,0.0,0.0,77,0.00,,---,0.00,VWS V13.01,2013-02-11 02:39:00,
2013-02-10 18:44:00,52.0,45.0,29.67,NNE,22,0.0,0.0,77,0.00,,---,0.00,VWS V13.01,2013-02-11 02:44:00,
2013-02-10 18:49:00,52.0,45.0,29.67,NNE,22,0.0,0.0,77,0.00,,---,0.00,VWS V13.01,2013-02-11 02:49:00,
2013-02-10 18:54:00,52.0,45.0,29.67,NNE,22,0.0,0.0,77,0.00,,---,0.00,VWS V13.01,2013-02-11 02:54:00,
2013-02-10 18:59:00,52.0,45.0,29.67,NNE,22,0.0,0.0,77,0.00,,---,0.00,VWS V13.01,2013-02-11 02:59:00,
2013-02-10 19:04:00,52.0,45.0,29.67,ESE,112,2.0,3.0,77,0.00,,---,0.00,VWS V13.01,2013-02-11 03:04:00,
2013-02-10 19:09:00,51.0,44.0,29.67,East,90,1.0,6.0,77,0.00,,---,0.00,VWS V13.01,2013-02-11 03:09:00,
2013-02-10 19:14:00,51.0,44.0,29.68,ESE,112,1.0,4.0,77,0.00,,---,0.00,VWS V13.01,2013-02-11 03:14:00,
2013-02-10 19:19:00,51.0,44.0,29.68,ESE,112,1.0,4.0,77,0.00,,---,0.00,VWS V13.01,2013-02-11 03:19:00,
2013-02-10 19:24:00,51.0,44.0,29.68,ESE,112,1.0,2.0,77,0.00,,---,0.00,VWS V13.01,2013-02-11 03:24:00,
2013-02-10 19:29:00,50.0,43.1,29.68,ESE,112,0.0,2.0,77,0.00,,---,0.00,VWS V13.01,2013-02-11 03:29:00,
2013-02-10 19:34:00,50.0,43.1,29.68,ESE,112,3.0,6.0,77,0.00,,---,0.00,VWS V13.01,2013-02-11 03:34:00,
2013-02-10 19:39:00,50.0,43.1,29.68,ESE,112,0.0,6.0,77,0.00,,---,0.00,VWS V13.01,2013-02-11 03:39:00,
2013-02-10 19:44:00,50.0,43.1,29.69,ESE,112,0.0,0.0,77,0.00,,---,0.00,VWS V13.01,2013-02-11 03:44:00,
2013-02-10 19:49:00,50.0,43.1,29.69,ESE,112,4.0,4.0,77,0.00,,---,0.00,VWS V13.01,2013-02-11 03:49:00,
2013-02-10 19:54:00,50.0,43.1,29.69,SE,135,3.0,3.0,77,0.00,,---,0.00,VWS V13.01,2013-02-11 03:54:00,
2013-02-10 19:59:00,50.0,43.1,29.69,SE,135,2.0,4.0,77,0.00,,---,0.00,VWS V13.01,2013-02-11 03:59:00,
2013-02-10 20:04:00,50.0,43.1,29.68,ESE,112,2.0,5.0,77,0.00,,---,0.00,VWS V13.01,2013-02-11 04:04:00,
2013-02-10 20:09:00,50.0,43.1,29.68,ESE,112,0.0,0.0,77,0.00,,---,0.00,VWS V13.01,2013-02-11 04:09:00,
2013-02-10 20:14:00,49.0,42.1,29.70,WNW,292,2.0,4.0,77,0.00,,---,0.00,VWS V13.01,2013-02-11 04:14:00,
2013-02-10 20:19:00,48.0,41.2,29.70,WNW,292,0.0,0.0,77,0.00,,---,0.00,VWS V13.01,2013-02-11 04:19:00,
2013-02-10 20:24:00,48.0,41.2,29.71,West,270,0.0,0.0,77,0.00,,---,0.00,VWS V13.01,2013-02-11 04:24:00,
2013-02-10 20:29:00,47.0,39.8,29.71,West,270,0.0,0.0,76,0.00,,---,0.00,VWS V13.01,2013-02-11 04:29:00,
2013-02-10 20:34:00,47.0,39.8,29.70,West,270,0.0,0.0,76,0.00,,---,0.00,VWS V13.01,2013-02-11 04:34:00,
2013-02-10 20:39:00,47.0,39.8,29.70,West,270,0.0,0.0,76,0.00,,---,0.00,VWS V13.01,2013-02-11 04:39:00,
2013-02-10 20:44:00,47.0,39.8,29.71,West,270,0.0,0.0,76,0.00,,---,0.00,VWS V13.01,2013-02-11 04:44:00,
2013-02-10 20:49:00,47.0,39.8,29.71,SE,135,0.0,0.0,76,0.00,,---,0.00,VWS V13.01,2013-02-11 04:49:00,
2013-02-10 20:54:00,47.0,39.8,29.71,SE,135,0.0,0.0,76,0.00,,---,0.00,VWS V13.01,2013-02-11 04:54:00,
2013-02-10 20:59:00,48.0,41.2,29.71,ESE,112,0.0,1.0,77,0.00,,---,0.00,VWS V13.01,2013-02-11 04:59:00,
2013-02-10 21:00:00,48.0,41.2,29.71,ESE,112,0.0,1.0,77,0.00,,---,0.00,VWS V13.01,2013-02-11 05:00:00,
2013-02-10 21:05:00,48.0,41.2,29.69,SSW,202,0.0,1.0,77,0.00,,---,0.00,VWS V13.01,2013-02-11 05:05:00,
2013-02-10 21:10:00,47.0,39.8,29.69,SSW,202,1.0,3.0,76,0.00,,---,0.00,VWS V13.01,2013-02-11 05:10:00,
2013-02-10 21:15:00,46.0,38.9,29.71,SSW,202,2.0,3.0,76,0.00,,---,0.00,VWS V13.01,2013-02-11 05:15:00,
2013-02-10 21:20:00,46.0,38.9,29.71,SSW,202,2.0,2.0,76,0.00,,---,0.00,VWS V13.01,2013-02-11 05:20:00,
2013-02-10 21:25:00,46.0,38.9,29.72,SSW,202,3.0,4.0,76,0.00,,---,0.00,VWS V13.01,2013-02-11 05:25:00,
2013-02-10 21:30:00,47.0,39.8,29.72,SSW,202,2.0,2.0,76,0.00,,---,0.00,VWS V13.01,2013-02-11 05:30:00,
2013-02-10 21:35:00,48.0,41.2,29.71,West,270,0.0,0.0,77,0.00,,---,0.00,VWS V13.01,2013-02-11 05:35:00,
2013-02-10 21:40:00,49.0,42.1,29.71,NW,315,0.0,0.0,77,0.00,,---,0.00,VWS V13.01,2013-02-11 05:40:00,
2013-02-10 21:45:00,49.0,42.1,29.70,NNE,22,0.0,0.0,77,0.00,,---,0.00,VWS V13.01,2013-02-11 05:45:00,
2013-02-10 21:50:00,49.0,42.1,29.70,North,360,0.0,0.0,77,0.00,,---,0.00,VWS V13.01,2013-02-11 05:50:00,
2013-02-10 21:55:00,49.0,42.1,29.71,North,360,0.0,0.0,77,0.00,,---,0.00,VWS V13.01,2013-02-11 05:55:00,
2013-02-10 22:00:00,49.0,42.1,29.71,North,360,0.0,0.0,77,0.00,,---,0.00,VWS V13.01,2013-02-11 06:00:00,
2013-02-10 22:05:00,48.0,41.2,29.71,East,90,0.0,0.0,77,0.00,,---,0.00,VWS V13.01,2013-02-11 06:05:00,
2013-02-10 22:10:00,48.0,41.2,29.71,SE,135,0.0,0.0,77,0.00,,---,0.00,VWS V13.01,2013-02-11 06:10:00,
2013-02-10 22:15:00,48.0,41.2,29.71,SSE,157,0.0,2.0,77,0.00,,---,0.00,VWS V13.01,2013-02-11 06:15:00,
2013-02-10 22:20:00,48.0,41.2,29.71,SE,135,0.0,1.0,77,0.00,,---,0.00,VWS V13.01,2013-02-11 06:20:00,
2013-02-10 22:25:00,48.0,41.2,29.71,SSW,202,0.0,2.0,77,0.00,,---,0.00,VWS V13.01,2013-02-11 06:25:00,
2013-02-10 22:30:00,48.0,41.2,29.71,South,180,0.0,0.0,77,0.00,,---,0.00,VWS V13.01,2013-02-11 06:30:00,
2013-02-10 22:35:00,48.0,41.2,29.71,SE,135,0.0,0.0,77,0.00,,---,0.00,VWS V13.01,2013-02-11 06:35:00,
2013-02-10 22:40:00,48.0,41.2,29.71,SSE,157,0.0,0.0,77,0.00,,---,0.00,VWS V13.01,2013-02-11 06:40:00,
2013-02-10 22:45:00,48.0,41.2,29.71,ESE,112,1.0,2.0,77,0.00,,---,0.00,VWS V13.01,2013-02-11 06:45:00,
2013-02-10 22:50:00,48.0,41.2,29.71,SE,135,1.0,2.0,77,0.00,,---,0.00,VWS V13.01,2013-02-11 06:50:00,
2013-02-10 22:55:00,48.0,41.2,29.72,ESE,112,0.0,0.0,77,0.00,,---,0.00,VWS V13.01,2013-02-11 06:55:00,
2013-02-10 23:00:00,48.0,41.2,29.72,SE,135,0.0,1.0,77,0.00,,---,0.00,VWS V13.01,2013-02-11 07:00:00,
2013-02-10 23:05:00,48.0,41.2,29.71,ENE,67,0.0,0.0,77,0.00,,---,0.00,VWS V13.01,2013-02-11 07:05:00,
2013-02-10 23:10:00,48.0,41.2,29.71,ENE,67,0.0,0.0,77,0.00,,---,0.00,VWS V13.01,2013-02-11 07:10:00,
2013-02-10 23:15:00,48.0,41.2,29.71,SE,135,0.0,1.0,77,0.00,,---,0.00,VWS V13.01,2013-02-11 07:15:00,
2013-02-10 23:20:00,47.0,39.8,29.71,ESE,112,0.0,0.0,76,0.00,,---,0.00,VWS V13.01,2013-02-11 07:20:00,
2013-02-10 23:25:00,47.0,39.8,29.72,ESE,112,0.0,0.0,76,0.00,,---,0.00,VWS V13.01,2013-02-11 07:25:00,
2013-02-10 23:30:00,47.0,39.8,29.72,ESE,112,0.0,0.0,76,0.00,,---,0.00,VWS V13.01,2013-02-11 07:30:00,
2013-02-10 23:35:00,46.0,38.9,29.73,ESE,112,0.0,0.0,76,0.00,,---,0.00,VWS V13.01,2013-02-11 07:35:00,
2013-02-10 23:40:00,46.0,38.9,29.73,ESE,112,0.0,0.0,76,0.00,,---,0.00,VWS V13.01,2013-02-11 07:40:00,
2013-02-10 23:45:00,46.0,38.9,29.73,ESE,112,0.0,0.0,76,0.00,,---,0.00,VWS V13.01,2013-02-11 07:45:00,
2013-02-10 23:50:00,46.0,38.9,29.73,ESE,112,0.0,0.0,76,0.00,,---,0.00,VWS V13.01,2013-02-11 07:50:00,
2013-02-10 23:55:00,45.0,37.9,29.73,ESE,112,0.0,0.0,76,0.00,,---,0.00,VWS V13.01,2013-02-11 07:55:00,